Time,TemperatureF,DewpointF,PressureIn,WindDirection,WindDirectionDegrees,WindSpeedMPH,WindSpeedGustMPH,Humidity,HourlyPrecipIn,Conditions,Clouds,dailyrainin,SolarRadiationWatts/m^2,SoftwareType,DateUTC
2013-03-29 00:00:00,41.0,30.5,30.22,West,272,2.0,2.0,66,0.00,,,0.01,0,Wunderground v.1.15,2013-03-29 04:00:00,
2013-03-29 00:01:00,41.0,30.5,30.22,West,272,2.0,2.0,66,0.00,,,0.01,0,Wunderground v.1.15,2013-03-29 04:01:00,
2013-03-29 00:02:00,41.0,30.5,30.22,West,273,0.0,2.0,66,0.00,,,0.01,0,Wunderground v.1.15,2013-03-29 04:02:00,
2013-03-29 00:03:00,41.0,30.5,30.22,West,273,0.0,2.0,66,0.00,,,0.01,0,Wunderground v.1.15,2013-03-29 04:03:00,
2013-03-29 00:09:00,41.0,30.5,30.22,West,274,0.0,2.0,66,0.00,,,0.01,0,Wunderground v.1.15,2013-03-29 04:09:00,
2013-03-29 00:14:00,41.1,30.6,30.22,West,272,0.0,1.0,66,0.00,,,0.01,0,Wunderground v.1.15,2013-03-29 04:14:00,
2013-03-29 00:19:00,41.1,30.6,30.22,WNW,290,0.0,1.0,66,0.00,,,0.01,0,Wunderground v.1.15,2013-03-29 04:19:00,
2013-03-29 00:25:00,41.1,30.6,30.23,WNW,291,0.0,1.0,66,0.00,,,0.01,0,Wunderground v.1.15,2013-03-29 04:25:00,
2013-03-29 00:30:00,41.1,30.6,30.23,WNW,295,0.0,0.0,66,0.00,,,0.01,0,Wunderground v.1.15,2013-03-29 04:30:00,
2013-03-29 00:35:00,41.1,30.6,30.22,NW,313,4.0,4.0,66,0.00,,,0.01,0,Wunderground v.1.15,2013-03-29 04:35:00,
2013-03-29 00:41:00,41.2,30.7,30.23,WNW,284,3.0,4.0,66,0.00,,,0.01,0,Wunderground v.1.15,2013-03-29 04:41:00,
2013-03-29 00:47:00,41.3,30.8,30.23,WNW,287,4.0,5.0,66,0.00,,,0.01,0,Wunderground v.1.15,2013-03-29 04:47:00,
2013-03-29 00:52:00,41.5,31.0,30.23,WNW,291,4.0,4.0,66,0.00,,,0.01,0,Wunderground v.1.15,2013-03-29 04:52:00,
2013-03-29 00:58:00,41.5,31.0,30.23,NW,307,5.0,5.0,66,0.00,,,0.01,0,Wunderground v.1.15,2013-03-29 04:58:00,
2013-03-29 01:04:00,41.5,31.0,30.23,NW,318,4.0,6.0,66,0.00,,,0.00,0,Wunderground v.1.15,2013-03-29 05:04:00,
2013-03-29 01:09:00,41.6,31.1,30.23,WSW,256,0.0,6.0,66,0.00,,,0.00,0,Wunderground v.1.15,2013-03-29 05:09:00,
2013-03-29 01:15:00,41.6,31.1,30.23,West,275,4.0,4.0,66,0.00,,,0.00,0,Wunderground v.1.15,2013-03-29 05:15:00,
2013-03-29 01:20:00,41.6,31.1,30.23,WNW,292,0.0,2.0,66,0.00,,,0.00,0,Wunderground v.1.15,2013-03-29 05:20:00,
2013-03-29 01:26:00,41.6,31.1,30.23,WNW,291,0.0,3.0,66,0.00,,,0.00,0,Wunderground v.1.15,2013-03-29 05:26:00,
2013-03-29 01:31:00,41.6,31.4,30.23,WNW,289,0.0,0.0,67,0.00,,,0.00,0,Wunderground v.1.15,2013-03-29 05:31:00,
2013-03-29 01:37:00,41.5,31.4,30.23,WNW,284,3.0,3.0,67,0.00,,,0.00,0,Wunderground v.1.15,2013-03-29 05:37:00,
2013-03-29 01:42:00,41.5,31.4,30.23,NW,304,0.0,1.0,67,0.00,,,0.00,0,Wunderground v.1.15,2013-03-29 05:42:00,
2013-03-29 01:48:00,41.5,31.4,30.23,WNW,299,0.0,1.0,67,0.00,,,0.00,0,Wunderground v.1.15,2013-03-29 05:48:00,
2013-03-29 01:54:00,41.4,31.3,30.23,West,266,0.0,4.0,67,0.00,,,0.00,0,Wunderground v.1.15,2013-03-29 05:54:00,
2013-03-29 02:00:00,41.4,31.3,30.23,WNW,283,0.0,2.0,67,0.00,,,0.00,0,Wunderground v.1.15,2013-03-29 06:00:00,
2013-03-29 02:05:00,41.5,31.4,30.23,West,280,0.0,6.0,67,0.00,,,0.00,0,Wunderground v.1.15,2013-03-29 06:05:00,
2013-03-29 02:10:00,41.5,31.4,30.23,WNW,282,0.0,2.0,67,0.00,,,0.00,0,Wunderground v.1.15,2013-03-29 06:10:00,
2013-03-29 02:15:00,41.5,31.4,30.23,WNW,286,4.0,7.0,67,0.00,,,0.00,0,Wunderground v.1.15,2013-03-29 06:15:00,
2013-03-29 02:20:00,41.5,31.4,30.23,WNW,287,1.0,4.0,67,0.00,,,0.00,0,Wunderground v.1.15,2013-03-29 06:20:00,
2013-03-29 02:25:00,41.5,31.4,30.23,WNW,299,3.0,5.0,67,0.00,,,0.00,0,Wunderground v.1.15,2013-03-29 06:25:00,
2013-03-29 02:30:00,41.6,31.4,30.23,WNW,298,0.0,3.0,67,0.00,,,0.00,0,Wunderground v.1.15,2013-03-29 06:30:00,
2013-03-29 02:35:00,41.6,31.4,30.23,NW,310,0.0,7.0,67,0.00,,,0.00,0,Wunderground v.1.15,2013-03-29 06:35:00,
2013-03-29 02:40:00,41.6,31.4,30.23,WNW,288,3.0,3.0,67,0.00,,,0.00,0,Wunderground v.1.15,2013-03-29 06:40:00,
2013-03-29 02:46:00,41.6,31.4,30.23,WNW,299,6.0,8.0,67,0.00,,,0.00,0,Wunderground v.1.15,2013-03-29 06:46:00,
2013-03-29 02:51:00,41.6,31.4,30.23,NW,307,5.0,7.0,67,0.00,,,0.00,0,Wunderground v.1.15,2013-03-29 06:51:00,
2013-03-29 02:56:00,41.6,31.4,30.23,West,277,4.0,7.0,67,0.00,,,0.00,0,Wunderground v.1.15,2013-03-29 06:56:00,
2013-03-29 03:02:00,41.6,31.4,30.23,NW,315,0.0,3.0,67,0.00,,,0.00,0,Wunderground v.1.15,2013-03-29 07:02:00,
2013-03-29 03:07:00,41.6,31.4,30.23,WNW,302,0.0,8.0,67,0.00,,,0.00,0,Wunderground v.1.15,2013-03-29 07:07:00,
2013-03-29 03:12:00,41.6,31.4,30.23,WNW,286,0.0,9.0,67,0.00,,,0.00,0,Wunderground v.1.15,2013-03-29 07:12:00,
2013-03-29 03:17:00,41.6,31.4,30.23,WNW,296,6.0,9.0,67,0.00,,,0.00,0,Wunderground v.1.15,2013-03-29 07:17:00,
2013-03-29 03:22:00,41.5,31.4,30.23,NW,320,1.0,7.0,67,0.00,,,0.00,0,Wunderground v.1.15,2013-03-29 07:22:00,
2013-03-29 03:27:00,41.5,31.4,30.22,SW,223,0.0,7.0,67,0.00,,,0.00,0,Wunderground v.1.15,2013-03-29 07:27:00,
2013-03-29 03:32:00,41.4,30.9,30.22,NW,311,2.0,4.0,66,0.00,,,0.00,0,Wunderground v.1.15,2013-03-29 07:32:00,
2013-03-29 03:37:00,41.4,30.1,30.22,WNW,294,2.0,8.0,64,0.00,,,0.00,0,Wunderground v.1.15,2013-03-29 07:37:00,
2013-03-29 03:42:00,41.3,30.0,30.22,West,278,2.0,4.0,64,0.00,,,0.00,0,Wunderground v.1.15,2013-03-29 07:42:00,
2013-03-29 03:47:00,41.3,30.4,30.22,NW,325,0.0,4.0,65,0.00,,,0.00,0,Wunderground v.1.15,2013-03-29 07:47:00,
2013-03-29 03:52:00,41.2,30.3,30.22,WNW,286,1.0,1.0,65,0.00,,,0.00,0,Wunderground v.1.15,2013-03-29 07:52:00,
2013-03-29 03:57:00,41.1,30.6,30.22,WNW,286,0.0,4.0,66,0.00,,,0.00,0,Wunderground v.1.15,2013-03-29 07:57:00,
2013-03-29 04:02:00,40.9,30.4,30.22,WNW,299,0.0,0.0,66,0.00,,,0.00,0,Wunderground v.1.15,2013-03-29 08:02:00,
2013-03-29 04:07:00,40.8,30.3,30.23,WNW,298,0.0,0.0,66,0.00,,,0.00,0,Wunderground v.1.15,2013-03-29 08:07:00,
2013-03-29 04:12:00,40.7,30.2,30.22,WNW,299,0.0,0.0,66,0.00,,,0.00,0,Wunderground v.1.15,2013-03-29 08:12:00,
2013-03-29 04:17:00,40.6,30.5,30.22,WNW,291,0.0,4.0,67,0.00,,,0.00,0,Wunderground v.1.15,2013-03-29 08:17:00,
2013-03-29 04:22:00,40.4,30.3,30.22,West,277,0.0,1.0,67,0.00,,,0.00,0,Wunderground v.1.15,2013-03-29 08:22:00,
2013-03-29 04:27:00,40.3,30.2,30.22,West,277,0.0,1.0,67,0.00,,,0.00,0,Wunderground v.1.15,2013-03-29 08:27:00,
2013-03-29 04:32:00,40.2,30.5,30.22,West,277,0.0,0.0,68,0.00,,,0.00,0,Wunderground v.1.15,2013-03-29 08:32:00,
2013-03-29 04:38:00,40.1,30.4,30.23,West,278,0.0,1.0,68,0.00,,,0.00,0,Wunderground v.1.15,2013-03-29 08:38:00,
2013-03-29 04:44:00,40.0,30.3,30.23,West,278,0.0,0.0,68,0.00,,,0.00,0,Wunderground v.1.15,2013-03-29 08:44:00,
2013-03-29 04:49:00,39.9,30.2,30.23,West,278,0.0,0.0,68,0.00,,,0.00,0,Wunderground v.1.15,2013-03-29 08:49:00,
2013-03-29 04:54:00,39.8,30.5,30.22,West,273,0.0,0.0,69,0.00,,,0.00,0,Wunderground v.1.15,2013-03-29 08:54:00,
2013-03-29 04:59:00,39.7,30.4,30.22,West,273,0.0,0.0,69,0.00,,,0.00,0,Wunderground v.1.15,2013-03-29 08:59:00,
2013-03-29 05:04:00,39.6,30.3,30.22,West,269,0.0,0.0,69,0.00,,,0.00,0,Wunderground v.1.15,2013-03-29 09:04:00,
2013-03-29 05:09:00,39.5,30.2,30.22,West,269,0.0,4.0,69,0.00,,,0.00,0,Wunderground v.1.15,2013-03-29 09:09:00,
2013-03-29 05:14:00,39.5,30.2,30.22,West,271,0.0,5.0,69,0.00,,,0.00,0,Wunderground v.1.15,2013-03-29 09:14:00,
2013-03-29 05:19:00,39.5,30.2,30.22,West,275,0.0,5.0,69,0.00,,,0.00,0,Wunderground v.1.15,2013-03-29 09:19:00,
2013-03-29 05:24:00,39.4,30.1,30.22,West,265,0.0,4.0,69,0.00,,,0.00,0,Wunderground v.1.15,2013-03-29 09:24:00,
2013-03-29 05:29:00,39.5,30.2,30.22,West,273,0.0,4.0,69,0.00,,,0.00,0,Wunderground v.1.15,2013-03-29 09:29:00,
2013-03-29 05:34:00,39.5,30.2,30.22,West,276,0.0,6.0,69,0.00,,,0.00,0,Wunderground v.1.15,2013-03-29 09:34:00,
2013-03-29 05:39:00,39.5,30.2,30.23,West,269,1.0,6.0,69,0.00,,,0.00,0,Wunderground v.1.15,2013-03-29 09:39:00,
2013-03-29 05:44:00,39.5,29.8,30.22,WNW,291,0.0,6.0,68,0.00,,,0.00,0,Wunderground v.1.15,2013-03-29 09:44:00,
2013-03-29 05:49:00,39.5,29.8,30.22,West,276,0.0,6.0,68,0.00,,,0.00,0,Wunderground v.1.15,2013-03-29 09:49:00,
2013-03-29 05:54:00,39.5,29.8,30.23,West,280,0.0,5.0,68,0.00,,,0.00,0,Wunderground v.1.15,2013-03-29 09:54:00,
2013-03-29 05:59:00,39.5,29.4,30.23,West,273,0.0,6.0,67,0.00,,,0.00,0,Wunderground v.1.15,2013-03-29 09:59:00,
2013-03-29 06:04:00,39.5,29.4,30.23,West,276,0.0,1.0,67,0.00,,,0.00,0,Wunderground v.1.15,2013-03-29 10:04:00,
2013-03-29 06:09:00,39.5,29.4,30.23,WNW,283,0.0,1.0,67,0.00,,,0.00,0,Wunderground v.1.15,2013-03-29 10:09:00,
2013-03-29 06:14:00,39.4,29.3,30.23,WNW,286,3.0,5.0,67,0.00,,,0.00,0,Wunderground v.1.15,2013-03-29 10:14:00,
2013-03-29 06:19:00,39.4,29.0,30.23,WNW,286,0.0,5.0,66,0.00,,,0.00,0,Wunderground v.1.15,2013-03-29 10:19:00,
2013-03-29 06:24:00,39.4,29.0,30.23,WNW,297,3.0,3.0,66,0.00,,,0.00,0,Wunderground v.1.15,2013-03-29 10:24:00,
2013-03-29 06:29:00,39.4,29.0,30.23,WNW,303,0.0,6.0,66,0.00,,,0.00,0,Wunderground v.1.15,2013-03-29 10:29:00,
2013-03-29 06:34:00,39.4,29.0,30.23,WNW,303,0.0,1.0,66,0.00,,,0.00,0,Wunderground v.1.15,2013-03-29 10:34:00,
2013-03-29 06:39:00,39.4,29.0,30.23,WNW,303,0.0,1.0,66,0.00,,,0.00,0,Wunderground v.1.15,2013-03-29 10:39:00,
2013-03-29 06:44:00,39.4,29.0,30.23,WNW,300,0.0,0.0,66,0.00,,,0.00,0,Wunderground v.1.15,2013-03-29 10:44:00,
2013-03-29 06:49:00,39.4,29.0,30.23,WNW,299,0.0,0.0,66,0.00,,,0.00,0,Wunderground v.1.15,2013-03-29 10:49:00,
2013-03-29 06:54:00,39.4,29.0,30.23,WNW,300,0.0,0.0,66,0.00,,,0.00,0,Wunderground v.1.15,2013-03-29 10:54:00,
2013-03-29 06:59:00,39.4,29.0,30.23,WNW,300,0.0,0.0,66,0.00,,,0.00,5,Wunderground v.1.15,2013-03-29 10:59:00,
2013-03-29 07:04:00,39.3,28.9,30.23,WNW,299,0.0,0.0,66,0.00,,,0.00,9,Wunderground v.1.15,2013-03-29 11:04:00,
2013-03-29 07:09:00,39.3,28.9,30.23,WNW,299,0.0,0.0,66,0.00,,,0.00,9,Wunderground v.1.15,2013-03-29 11:09:00,
2013-03-29 07:15:00,39.3,29.3,30.23,WNW,299,0.0,0.0,67,0.00,,,0.00,11,Wunderground v.1.15,2013-03-29 11:15:00,
2013-03-29 07:19:00,39.3,29.3,30.23,WNW,298,0.0,0.0,67,0.00,,,0.00,18,Wunderground v.1.15,2013-03-29 11:19:00,
2013-03-29 07:25:00,39.3,29.3,30.23,WNW,298,0.0,0.0,67,0.00,,,0.00,18,Wunderground v.1.15,2013-03-29 11:25:00,
2013-03-29 07:30:00,39.2,29.2,30.24,WNW,296,0.0,0.0,67,0.00,,,0.00,19,Wunderground v.1.15,2013-03-29 11:30:00,
2013-03-29 07:35:00,39.2,29.2,30.24,WNW,290,0.0,0.0,67,0.00,,,0.00,21,Wunderground v.1.15,2013-03-29 11:35:00,
2013-03-29 07:40:00,39.1,29.1,30.24,WNW,290,0.0,0.0,67,0.00,,,0.00,25,Wunderground v.1.15,2013-03-29 11:40:00,
2013-03-29 07:45:00,39.1,29.1,30.24,WNW,289,0.0,0.0,67,0.00,,,0.00,28,Wunderground v.1.15,2013-03-29 11:45:00,
2013-03-29 07:51:00,39.1,29.4,30.24,WNW,288,0.0,0.0,68,0.00,,,0.00,46,Wunderground v.1.15,2013-03-29 11:51:00,
2013-03-29 07:56:00,39.1,29.4,30.24,WNW,287,0.0,0.0,68,0.00,,,0.00,47,Wunderground v.1.15,2013-03-29 11:56:00,
2013-03-29 08:01:00,39.2,29.5,30.24,WNW,287,0.0,0.0,68,0.00,,,0.00,53,Wunderground v.1.15,2013-03-29 12:01:00,
2013-03-29 08:06:00,39.4,29.7,30.25,West,272,0.0,4.0,68,0.00,,,0.00,46,Wunderground v.1.15,2013-03-29 12:06:00,
2013-03-29 08:12:00,39.6,29.9,30.25,WSW,254,0.0,3.0,68,0.00,,,0.00,42,Wunderground v.1.15,2013-03-29 12:12:00,
2013-03-29 08:17:00,39.9,30.2,30.24,WSW,254,0.0,3.0,68,0.00,,,0.00,35,Wunderground v.1.15,2013-03-29 12:17:00,
2013-03-29 08:22:00,40.1,30.4,30.25,WSW,244,0.0,5.0,68,0.00,,,0.00,56,Wunderground v.1.15,2013-03-29 12:22:00,
2013-03-29 08:27:00,40.4,30.3,30.24,WNW,295,0.0,5.0,67,0.00,,,0.00,95,Wunderground v.1.15,2013-03-29 12:27:00,
2013-03-29 08:32:00,40.8,30.7,30.25,West,276,0.0,1.0,67,0.00,,,0.00,83,Wunderground v.1.15,2013-03-29 12:32:00,
2013-03-29 08:37:00,41.0,30.9,30.25,WNW,286,0.0,6.0,67,0.00,,,0.00,102,Wunderground v.1.15,2013-03-29 12:37:00,
2013-03-29 08:42:00,41.3,30.8,30.25,NNW,330,1.0,5.0,66,0.00,,,0.00,70,Wunderground v.1.15,2013-03-29 12:42:00,
2013-03-29 08:47:00,41.7,31.2,30.25,NW,311,8.0,12.0,66,0.00,,,0.00,163,Wunderground v.1.15,2013-03-29 12:47:00,
2013-03-29 08:52:00,42.1,31.2,30.25,West,260,0.0,5.0,65,0.00,,,0.00,63,Wunderground v.1.15,2013-03-29 12:52:00,
2013-03-29 08:57:00,42.4,31.5,30.25,WNW,300,0.0,14.0,65,0.00,,,0.00,49,Wunderground v.1.15,2013-03-29 12:57:00,
2013-03-29 09:02:00,42.9,31.6,30.25,North,355,4.0,4.0,64,0.00,,,0.00,77,Wunderground v.1.15,2013-03-29 13:02:00,
2013-03-29 09:07:00,43.4,31.2,30.25,NW,305,6.0,14.0,62,0.00,,,0.00,181,Wunderground v.1.15,2013-03-29 13:07:00,
2013-03-29 09:12:00,43.8,31.6,30.25,WNW,287,2.0,9.0,62,0.00,,,0.00,223,Wunderground v.1.15,2013-03-29 13:12:00,
2013-03-29 09:17:00,44.5,31.5,30.25,NW,305,0.0,9.0,60,0.00,,,0.00,220,Wunderground v.1.15,2013-03-29 13:17:00,
2013-03-29 09:23:00,44.6,31.1,30.25,West,281,0.0,8.0,59,0.00,,,0.00,197,Wunderground v.1.15,2013-03-29 13:23:00,
2013-03-29 09:28:00,44.9,31.0,30.25,West,273,10.0,14.0,58,0.00,,,0.00,200,Wunderground v.1.15,2013-03-29 13:28:00,
2013-03-29 09:33:00,44.5,30.6,30.25,NW,314,4.0,12.0,58,0.00,,,0.00,176,Wunderground v.1.15,2013-03-29 13:33:00,
2013-03-29 09:38:00,44.5,30.6,30.25,WNW,299,4.0,12.0,58,0.00,,,0.00,227,Wunderground v.1.15,2013-03-29 13:38:00,
2013-03-29 09:43:00,44.4,30.5,30.24,WNW,290,0.0,12.0,58,0.00,,,0.00,202,Wunderground v.1.15,2013-03-29 13:43:00,
2013-03-29 09:48:00,45.0,31.1,30.25,NW,304,0.0,12.0,58,0.00,,,0.00,230,Wunderground v.1.15,2013-03-29 13:48:00,
2013-03-29 09:53:00,45.1,30.8,30.25,WNW,284,3.0,7.0,57,0.00,,,0.00,255,Wunderground v.1.15,2013-03-29 13:53:00,
2013-03-29 09:59:00,45.4,31.0,30.24,NNW,345,5.0,7.0,57,0.00,,,0.00,302,Wunderground v.1.15,2013-03-29 13:59:00,
2013-03-29 10:04:00,45.6,30.8,30.24,West,273,3.0,10.0,56,0.00,,,0.00,274,Wunderground v.1.15,2013-03-29 14:04:00,
2013-03-29 10:09:00,45.8,31.0,30.24,West,264,4.0,12.0,56,0.00,,,0.00,288,Wunderground v.1.15,2013-03-29 14:09:00,
2013-03-29 10:14:00,45.8,31.4,30.24,NW,304,4.0,8.0,57,0.00,,,0.00,341,Wunderground v.1.15,2013-03-29 14:14:00,
2013-03-29 10:19:00,46.2,31.8,30.24,WNW,284,7.0,10.0,57,0.00,,,0.00,411,Wunderground v.1.15,2013-03-29 14:19:00,
2013-03-29 10:24:00,46.2,31.4,30.24,NW,315,6.0,13.0,56,0.00,,,0.00,336,Wunderground v.1.15,2013-03-29 14:24:00,
2013-03-29 10:29:00,46.6,32.2,30.24,NNW,338,9.0,13.0,57,0.00,,,0.00,380,Wunderground v.1.15,2013-03-29 14:29:00,
2013-03-29 10:34:00,47.5,33.0,30.24,WNW,288,0.0,7.0,57,0.00,,,0.00,353,Wunderground v.1.15,2013-03-29 14:34:00,
2013-03-29 10:39:00,46.7,31.8,30.24,WNW,284,3.0,7.0,56,0.00,,,0.00,260,Wunderground v.1.15,2013-03-29 14:39:00,
2013-03-29 10:44:00,46.9,32.0,30.23,WNW,289,0.0,9.0,56,0.00,,,0.00,647,Wunderground v.1.15,2013-03-29 14:44:00,
2013-03-29 10:49:00,47.2,32.3,30.24,West,264,1.0,11.0,56,0.00,,,0.00,285,Wunderground v.1.15,2013-03-29 14:49:00,
2013-03-29 10:54:00,47.0,32.1,30.23,WNW,284,1.0,11.0,56,0.00,,,0.00,420,Wunderground v.1.15,2013-03-29 14:54:00,
2013-03-29 10:59:00,47.4,33.8,30.23,West,279,0.0,11.0,59,0.00,,,0.00,425,Wunderground v.1.15,2013-03-29 14:59:00,
2013-03-29 11:04:00,47.6,31.8,30.23,NNW,342,2.0,8.0,54,0.00,,,0.00,422,Wunderground v.1.15,2013-03-29 15:04:00,
2013-03-29 11:09:00,48.8,32.9,30.23,NW,324,4.0,10.0,54,0.00,,,0.00,362,Wunderground v.1.15,2013-03-29 15:09:00,
2013-03-29 11:14:00,48.4,32.5,30.23,NE,52,0.0,8.0,54,0.00,,,0.00,436,Wunderground v.1.15,2013-03-29 15:14:00,
2013-03-29 11:19:00,48.6,31.8,30.23,WNW,284,6.0,10.0,52,0.00,,,0.00,417,Wunderground v.1.15,2013-03-29 15:19:00,
2013-03-29 11:24:00,48.3,31.9,30.23,WNW,298,2.0,8.0,53,0.00,,,0.00,381,Wunderground v.1.15,2013-03-29 15:24:00,
2013-03-29 11:29:00,48.3,32.4,30.23,WNW,296,0.0,8.0,54,0.00,,,0.00,353,Wunderground v.1.15,2013-03-29 15:29:00,
2013-03-29 11:34:00,48.6,32.7,30.23,West,271,0.0,7.0,54,0.00,,,0.00,504,Wunderground v.1.15,2013-03-29 15:34:00,
2013-03-29 11:39:00,49.6,33.2,30.23,NW,323,0.0,7.0,53,0.00,,,0.00,461,Wunderground v.1.15,2013-03-29 15:39:00,
2013-03-29 11:44:00,49.6,32.2,30.22,NW,318,0.0,6.0,51,0.00,,,0.00,387,Wunderground v.1.15,2013-03-29 15:44:00,
2013-03-29 11:49:00,49.5,32.6,30.22,NW,326,4.0,4.0,52,0.00,,,0.00,722,Wunderground v.1.15,2013-03-29 15:49:00,
2013-03-29 11:55:00,50.5,33.5,30.22,WNW,289,2.0,12.0,52,0.00,,,0.00,568,Wunderground v.1.15,2013-03-29 15:55:00,
2013-03-29 12:00:00,50.1,32.7,30.22,WNW,299,6.0,9.0,51,0.00,,,0.00,798,Wunderground v.1.15,2013-03-29 16:00:00,
2013-03-29 12:05:00,50.5,33.0,30.22,West,277,3.0,9.0,51,0.00,,,0.00,515,Wunderground v.1.15,2013-03-29 16:05:00,
2013-03-29 12:10:00,50.6,33.1,30.22,North,349,5.0,5.0,51,0.00,,,0.00,466,Wunderground v.1.15,2013-03-29 16:10:00,
2013-03-29 12:15:00,50.2,32.3,30.22,West,269,4.0,15.0,50,0.00,,,0.00,445,Wunderground v.1.15,2013-03-29 16:15:00,
2013-03-29 12:20:00,50.2,32.8,30.21,WNW,303,7.0,7.0,51,0.00,,,0.00,443,Wunderground v.1.15,2013-03-29 16:20:00,
2013-03-29 12:25:00,50.1,32.7,30.21,NNW,328,3.0,14.0,51,0.00,,,0.00,575,Wunderground v.1.15,2013-03-29 16:25:00,
2013-03-29 12:30:00,50.4,32.9,30.21,NW,319,13.0,13.0,51,0.00,,,0.00,385,Wunderground v.1.15,2013-03-29 16:30:00,
2013-03-29 12:35:00,50.8,32.3,30.21,WNW,285,5.0,14.0,49,0.00,,,0.00,668,Wunderground v.1.15,2013-03-29 16:35:00,
2013-03-29 12:40:00,50.6,31.6,30.21,West,281,3.0,11.0,48,0.00,,,0.00,527,Wunderground v.1.15,2013-03-29 16:40:00,
2013-03-29 12:45:00,51.0,32.5,30.20,NW,314,1.0,11.0,49,0.00,,,0.00,517,Wunderground v.1.15,2013-03-29 16:45:00,
2013-03-29 12:50:00,51.9,32.3,30.20,NE,38,1.0,3.0,47,0.00,,,0.00,515,Wunderground v.1.15,2013-03-29 16:50:00,
2013-03-29 12:55:00,51.7,31.6,30.20,WNW,303,1.0,17.0,46,0.00,,,0.00,657,Wunderground v.1.15,2013-03-29 16:55:00,
2013-03-29 13:02:00,51.4,31.3,30.20,NW,305,1.0,9.0,46,0.00,,,0.00,893,Wunderground v.1.15,2013-03-29 17:02:00,
2013-03-29 13:07:00,53.0,34.3,30.19,WNW,302,0.0,10.0,49,0.00,,,0.00,858,Wunderground v.1.15,2013-03-29 17:07:00,
2013-03-29 13:12:00,54.0,32.6,30.19,ENE,57,0.0,8.0,44,0.00,,,0.00,165,Wunderground v.1.15,2013-03-29 17:12:00,
2013-03-29 13:17:00,54.1,32.6,30.19,NNE,20,0.0,8.0,44,0.00,,,0.00,889,Wunderground v.1.15,2013-03-29 17:17:00,
2013-03-29 13:22:00,55.3,33.7,30.19,NW,318,0.0,1.0,44,0.00,,,0.00,879,Wunderground v.1.15,2013-03-29 17:22:00,
2013-03-29 13:27:00,54.3,31.1,30.18,SW,235,0.0,16.0,41,0.00,,,0.00,889,Wunderground v.1.15,2013-03-29 17:27:00,
2013-03-29 13:32:00,53.4,31.4,30.19,NW,310,0.0,10.0,43,0.00,,,0.00,306,Wunderground v.1.15,2013-03-29 17:32:00,
2013-03-29 13:37:00,53.2,31.8,30.18,NNE,32,0.0,10.0,44,0.00,,,0.00,851,Wunderground v.1.15,2013-03-29 17:37:00,
2013-03-29 13:42:00,54.1,30.3,30.18,WNW,303,13.0,15.0,40,0.00,,,0.00,851,Wunderground v.1.15,2013-03-29 17:42:00,
2013-03-29 13:47:00,53.9,30.1,30.18,North,360,5.0,15.0,40,0.00,,,0.00,905,Wunderground v.1.15,2013-03-29 17:47:00,
2013-03-29 13:52:00,53.8,31.2,30.18,NW,311,8.0,11.0,42,0.00,,,0.00,874,Wunderground v.1.15,2013-03-29 17:52:00,
2013-03-29 13:57:00,53.9,31.9,30.17,NNE,18,0.0,12.0,43,0.00,,,0.00,926,Wunderground v.1.15,2013-03-29 17:57:00,
2013-03-29 14:02:00,54.2,31.0,30.17,WSW,241,1.0,12.0,41,0.00,,,0.00,432,Wunderground v.1.15,2013-03-29 18:02:00,
2013-03-29 14:07:00,53.6,31.0,30.17,WNW,302,12.0,12.0,42,0.00,,,0.00,285,Wunderground v.1.15,2013-03-29 18:07:00,
2013-03-29 14:12:00,53.5,31.0,30.17,NW,311,6.0,9.0,42,0.00,,,0.00,963,Wunderground v.1.15,2013-03-29 18:12:00,
2013-03-29 14:17:00,53.8,31.2,30.17,West,263,1.0,14.0,42,0.00,,,0.00,935,Wunderground v.1.15,2013-03-29 18:17:00,
2013-03-29 14:22:00,53.9,30.7,30.17,West,263,3.0,12.0,41,0.00,,,0.00,188,Wunderground v.1.15,2013-03-29 18:22:00,
2013-03-29 14:27:00,53.4,29.7,30.17,NNW,345,2.0,14.0,40,0.00,,,0.00,218,Wunderground v.1.15,2013-03-29 18:27:00,
2013-03-29 14:32:00,52.8,29.1,30.16,West,272,1.0,13.0,40,0.00,,,0.00,167,Wunderground v.1.15,2013-03-29 18:32:00,
2013-03-29 14:38:00,52.7,29.6,30.16,NW,314,0.0,13.0,41,0.00,,,0.00,169,Wunderground v.1.15,2013-03-29 18:38:00,
2013-03-29 14:42:00,52.7,28.4,30.16,WSW,250,5.0,15.0,39,0.00,,,0.00,227,Wunderground v.1.15,2013-03-29 18:42:00,
2013-03-29 14:47:00,52.6,28.9,30.17,WSW,248,4.0,15.0,40,0.00,,,0.00,250,Wunderground v.1.15,2013-03-29 18:47:00,
2013-03-29 14:53:00,52.4,29.4,30.17,NW,323,3.0,11.0,41,0.00,,,0.00,269,Wunderground v.1.15,2013-03-29 18:53:00,
2013-03-29 14:58:00,52.5,29.5,30.17,WNW,300,3.0,11.0,41,0.00,,,0.00,299,Wunderground v.1.15,2013-03-29 18:58:00,
2013-03-29 15:02:00,52.5,29.5,30.16,West,275,8.0,11.0,41,0.00,,,0.00,295,Wunderground v.1.15,2013-03-29 19:02:00,
2013-03-29 15:08:00,52.4,30.0,30.16,WSW,253,9.0,16.0,42,0.00,,,0.00,288,Wunderground v.1.15,2013-03-29 19:08:00,
2013-03-29 15:13:00,53.1,30.6,30.16,WNW,302,12.0,12.0,42,0.00,,,0.00,271,Wunderground v.1.15,2013-03-29 19:13:00,
2013-03-29 15:18:00,53.0,30.5,30.16,NW,314,6.0,12.0,42,0.00,,,0.00,325,Wunderground v.1.15,2013-03-29 19:18:00,
2013-03-29 15:23:00,53.0,30.5,30.16,NW,315,1.0,9.0,42,0.00,,,0.00,206,Wunderground v.1.15,2013-03-29 19:23:00,
2013-03-29 15:28:00,52.9,29.8,30.16,West,273,6.0,13.0,41,0.00,,,0.00,218,Wunderground v.1.15,2013-03-29 19:28:00,
2013-03-29 15:33:00,52.6,29.5,30.16,West,281,2.0,10.0,41,0.00,,,0.00,257,Wunderground v.1.15,2013-03-29 19:33:00,
2013-03-29 15:38:00,52.6,28.9,30.15,West,271,3.0,15.0,40,0.00,,,0.00,276,Wunderground v.1.15,2013-03-29 19:38:00,
2013-03-29 15:43:00,52.8,29.7,30.15,West,281,3.0,12.0,41,0.00,,,0.00,271,Wunderground v.1.15,2013-03-29 19:43:00,
2013-03-29 15:49:00,53.7,30.5,30.15,NW,308,2.0,12.0,41,0.00,,,0.00,338,Wunderground v.1.15,2013-03-29 19:49:00,
2013-03-29 15:54:00,53.7,29.9,30.15,West,263,0.0,12.0,40,0.00,,,0.00,230,Wunderground v.1.15,2013-03-29 19:54:00,
2013-03-29 15:59:00,53.9,31.3,30.15,ENE,75,2.0,12.0,42,0.00,,,0.00,330,Wunderground v.1.15,2013-03-29 19:59:00,
2013-03-29 16:04:00,54.2,31.6,30.15,WNW,291,7.0,12.0,42,0.00,,,0.00,271,Wunderground v.1.15,2013-03-29 20:04:00,
2013-03-29 16:09:00,53.6,31.0,30.15,North,10,3.0,12.0,42,0.00,,,0.00,250,Wunderground v.1.15,2013-03-29 20:09:00,
2013-03-29 16:14:00,53.7,32.3,30.15,North,5,0.0,8.0,44,0.00,,,0.00,204,Wunderground v.1.15,2013-03-29 20:14:00,
2013-03-29 16:19:00,54.4,31.8,30.14,NW,310,10.0,12.0,42,0.00,,,0.00,598,Wunderground v.1.15,2013-03-29 20:19:00,
2013-03-29 16:24:00,55.2,31.3,30.15,WNW,300,2.0,7.0,40,0.00,,,0.00,582,Wunderground v.1.15,2013-03-29 20:24:00,
2013-03-29 16:29:00,55.4,31.5,30.15,NNW,340,2.0,10.0,40,0.00,,,0.00,571,Wunderground v.1.15,2013-03-29 20:29:00,
2013-03-29 16:34:00,55.2,31.3,30.14,NNW,330,10.0,11.0,40,0.00,,,0.00,288,Wunderground v.1.15,2013-03-29 20:34:00,
2013-03-29 16:39:00,54.1,30.9,30.14,West,274,1.0,13.0,41,0.00,,,0.00,174,Wunderground v.1.15,2013-03-29 20:39:00,
2013-03-29 16:44:00,53.6,30.4,30.14,West,265,2.0,15.0,41,0.00,,,0.00,306,Wunderground v.1.15,2013-03-29 20:44:00,
2013-03-29 16:49:00,54.2,31.0,30.14,WNW,286,5.0,17.0,41,0.00,,,0.00,485,Wunderground v.1.15,2013-03-29 20:49:00,
2013-03-29 16:54:00,54.5,31.3,30.14,WNW,296,9.0,14.0,41,0.00,,,0.00,506,Wunderground v.1.15,2013-03-29 20:54:00,
2013-03-29 16:59:00,53.8,31.2,30.14,West,263,0.0,14.0,42,0.00,,,0.00,199,Wunderground v.1.15,2013-03-29 20:59:00,
2013-03-29 17:04:00,54.2,31.6,30.14,WNW,283,1.0,9.0,42,0.00,,,0.00,388,Wunderground v.1.15,2013-03-29 21:04:00,
2013-03-29 17:09:00,54.1,30.9,30.14,WSW,248,10.0,11.0,41,0.00,,,0.00,158,Wunderground v.1.15,2013-03-29 21:09:00,
2013-03-29 17:14:00,54.2,31.6,30.14,NNW,338,0.0,10.0,42,0.00,,,0.00,403,Wunderground v.1.15,2013-03-29 21:14:00,
2013-03-29 17:19:00,55.0,31.1,30.14,NW,323,0.0,10.0,40,0.00,,,0.00,455,Wunderground v.1.15,2013-03-29 21:19:00,
2013-03-29 17:24:00,55.2,31.3,30.14,WNW,291,7.0,9.0,40,0.00,,,0.00,181,Wunderground v.1.15,2013-03-29 21:24:00,
2013-03-29 17:29:00,54.5,31.3,30.14,WNW,296,4.0,9.0,41,0.00,,,0.00,278,Wunderground v.1.15,2013-03-29 21:29:00,
2013-03-29 17:35:00,53.9,30.7,30.14,West,267,2.0,8.0,41,0.00,,,0.00,91,Wunderground v.1.15,2013-03-29 21:35:00,
2013-03-29 17:40:00,53.5,30.4,30.14,NW,318,3.0,3.0,41,0.00,,,0.00,229,Wunderground v.1.15,2013-03-29 21:40:00,
2013-03-29 17:46:00,53.6,30.4,30.14,WSW,254,6.0,10.0,41,0.00,,,0.00,130,Wunderground v.1.15,2013-03-29 21:46:00,
2013-03-29 17:52:00,53.1,30.0,30.14,WSW,240,6.0,6.0,41,0.00,,,0.00,128,Wunderground v.1.15,2013-03-29 21:52:00,
2013-03-29 17:57:00,53.2,30.7,30.14,WNW,300,1.0,7.0,42,0.00,,,0.00,128,Wunderground v.1.15,2013-03-29 21:57:00,
2013-03-29 18:02:00,53.2,30.7,30.14,WNW,298,1.0,4.0,42,0.00,,,0.00,76,Wunderground v.1.15,2013-03-29 22:02:00,
2013-03-29 18:07:00,53.5,30.4,30.14,WNW,296,0.0,6.0,41,0.00,,,0.00,49,Wunderground v.1.15,2013-03-29 22:07:00,
2013-03-29 18:12:00,53.0,30.5,30.14,WNW,288,2.0,4.0,42,0.00,,,0.00,46,Wunderground v.1.15,2013-03-29 22:12:00,
2013-03-29 18:17:00,52.5,30.6,30.14,WNW,286,3.0,4.0,43,0.00,,,0.00,67,Wunderground v.1.15,2013-03-29 22:17:00,
2013-03-29 18:22:00,52.3,30.4,30.14,WNW,297,1.0,5.0,43,0.00,,,0.00,128,Wunderground v.1.15,2013-03-29 22:22:00,
2013-03-29 18:27:00,52.4,30.5,30.14,NW,315,0.0,5.0,43,0.00,,,0.00,142,Wunderground v.1.15,2013-03-29 22:27:00,
2013-03-29 18:32:00,52.7,30.2,30.14,NW,324,1.0,6.0,42,0.00,,,0.00,128,Wunderground v.1.15,2013-03-29 22:32:00,
2013-03-29 18:37:00,52.5,30.6,30.14,WNW,294,0.0,6.0,43,0.00,,,0.00,35,Wunderground v.1.15,2013-03-29 22:37:00,
2013-03-29 18:43:00,52.2,30.4,30.14,West,277,0.0,3.0,43,0.00,,,0.00,74,Wunderground v.1.15,2013-03-29 22:43:00,
2013-03-29 18:48:00,52.2,30.4,30.14,West,275,1.0,3.0,43,0.00,,,0.00,88,Wunderground v.1.15,2013-03-29 22:48:00,
2013-03-29 18:53:00,52.2,30.4,30.14,WSW,254,3.0,5.0,43,0.00,,,0.00,70,Wunderground v.1.15,2013-03-29 22:53:00,
2013-03-29 18:58:00,52.1,30.3,30.15,WNW,282,0.0,5.0,43,0.00,,,0.00,30,Wunderground v.1.15,2013-03-29 22:58:00,
2013-03-29 19:03:00,51.9,30.1,30.15,West,281,0.0,1.0,43,0.00,,,0.00,32,Wunderground v.1.15,2013-03-29 23:03:00,
2013-03-29 19:08:00,51.8,30.0,30.15,NW,315,2.0,5.0,43,0.00,,,0.00,25,Wunderground v.1.15,2013-03-29 23:08:00,
2013-03-29 19:13:00,51.7,29.9,30.15,WNW,294,0.0,4.0,43,0.00,,,0.00,16,Wunderground v.1.15,2013-03-29 23:13:00,
2013-03-29 19:18:00,51.5,30.3,30.15,NW,311,0.0,4.0,44,0.00,,,0.00,11,Wunderground v.1.15,2013-03-29 23:18:00,
2013-03-29 19:23:00,51.4,30.2,30.15,WNW,299,0.0,0.0,44,0.00,,,0.00,7,Wunderground v.1.15,2013-03-29 23:23:00,
2013-03-29 19:28:00,51.3,30.1,30.15,West,275,0.0,2.0,44,0.00,,,0.00,0,Wunderground v.1.15,2013-03-29 23:28:00,
2013-03-29 19:34:00,51.2,29.4,30.15,West,259,0.0,3.0,43,0.00,,,0.00,0,Wunderground v.1.15,2013-03-29 23:34:00,
2013-03-29 19:39:00,51.1,29.4,30.15,WNW,290,2.0,2.0,43,0.00,,,0.00,0,Wunderground v.1.15,2013-03-29 23:39:00,
2013-03-29 19:44:00,51.0,29.3,30.15,WNW,285,0.0,5.0,43,0.00,,,0.00,0,Wunderground v.1.15,2013-03-29 23:44:00,
2013-03-29 19:49:00,50.9,29.2,30.15,West,272,0.0,0.0,43,0.00,,,0.00,0,Wunderground v.1.15,2013-03-29 23:49:00,
2013-03-29 19:54:00,50.7,29.0,30.16,West,271,0.0,0.0,43,0.00,,,0.00,0,Wunderground v.1.15,2013-03-29 23:54:00,
2013-03-29 19:59:00,50.8,29.1,30.16,West,270,0.0,0.0,43,0.00,,,0.00,0,Wunderground v.1.15,2013-03-29 23:59:00,
2013-03-29 20:04:00,50.7,29.0,30.16,West,270,0.0,0.0,43,0.00,,,0.00,0,Wunderground v.1.15,2013-03-30 00:04:00,
2013-03-29 20:09:00,50.6,28.9,30.16,West,269,0.0,0.0,43,0.00,,,0.00,0,Wunderground v.1.15,2013-03-30 00:09:00,
2013-03-29 20:14:00,50.3,28.6,30.16,West,268,0.0,3.0,43,0.00,,,0.00,0,Wunderground v.1.15,2013-03-30 00:14:00,
2013-03-29 20:19:00,50.3,28.6,30.16,West,269,0.0,3.0,43,0.00,,,0.00,0,Wunderground v.1.15,2013-03-30 00:19:00,
2013-03-29 20:24:00,50.0,28.4,30.16,West,269,0.0,0.0,43,0.00,,,0.00,0,Wunderground v.1.15,2013-03-30 00:24:00,
2013-03-29 20:29:00,49.6,28.6,30.16,West,269,0.0,0.0,44,0.00,,,0.00,0,Wunderground v.1.15,2013-03-30 00:29:00,
2013-03-29 20:34:00,49.4,28.4,30.16,West,269,0.0,0.0,44,0.00,,,0.00,0,Wunderground v.1.15,2013-03-30 00:34:00,
2013-03-29 20:39:00,49.6,28.0,30.16,West,269,0.0,0.0,43,0.00,,,0.00,0,Wunderground v.1.15,2013-03-30 00:39:00,
2013-03-29 20:44:00,49.6,28.0,30.16,West,268,0.0,0.0,43,0.00,,,0.00,0,Wunderground v.1.15,2013-03-30 00:44:00,
2013-03-29 20:49:00,49.4,28.4,30.16,West,269,0.0,0.0,44,0.00,,,0.00,0,Wunderground v.1.15,2013-03-30 00:49:00,
2013-03-29 20:54:00,49.1,28.7,30.17,West,269,0.0,0.0,45,0.00,,,0.00,0,Wunderground v.1.15,2013-03-30 00:54:00,
2013-03-29 20:59:00,48.8,28.4,30.17,West,268,0.0,0.0,45,0.00,,,0.00,0,Wunderground v.1.15,2013-03-30 00:59:00,
2013-03-29 21:04:00,48.9,28.5,30.17,West,269,0.0,0.0,45,0.00,,,0.00,0,Wunderground v.1.15,2013-03-30 01:04:00,
2013-03-29 21:09:00,49.1,28.1,30.17,West,269,0.0,0.0,44,0.00,,,0.00,0,Wunderground v.1.15,2013-03-30 01:09:00,
2013-03-29 21:14:00,49.3,28.3,30.17,West,268,0.0,0.0,44,0.00,,,0.00,0,Wunderground v.1.15,2013-03-30 01:14:00,
2013-03-29 21:19:00,49.1,28.1,30.17,West,268,0.0,0.0,44,0.00,,,0.00,0,Wunderground v.1.15,2013-03-30 01:19:00,
2013-03-29 21:24:00,49.0,28.0,30.18,West,269,0.0,0.0,44,0.00,,,0.00,0,Wunderground v.1.15,2013-03-30 01:24:00,
2013-03-29 21:29:00,48.3,27.9,30.18,West,269,0.0,0.0,45,0.00,,,0.00,0,Wunderground v.1.15,2013-03-30 01:29:00,
2013-03-29 21:34:00,48.0,28.2,30.18,West,269,0.0,0.0,46,0.00,,,0.00,0,Wunderground v.1.15,2013-03-30 01:34:00,
2013-03-29 21:39:00,48.3,27.9,30.18,West,269,0.0,0.0,45,0.00,,,0.00,0,Wunderground v.1.15,2013-03-30 01:39:00,
2013-03-29 21:44:00,48.3,28.5,30.18,West,269,0.0,0.0,46,0.00,,,0.00,0,Wunderground v.1.15,2013-03-30 01:44:00,
2013-03-29 21:49:00,47.9,28.1,30.18,West,269,0.0,0.0,46,0.00,,,0.00,0,Wunderground v.1.15,2013-03-30 01:49:00,
2013-03-29 21:54:00,48.3,27.9,30.18,West,268,0.0,0.0,45,0.00,,,0.00,0,Wunderground v.1.15,2013-03-30 01:54:00,
2013-03-29 21:59:00,48.3,28.5,30.18,West,269,0.0,0.0,46,0.00,,,0.00,0,Wunderground v.1.15,2013-03-30 01:59:00,
2013-03-29 22:04:00,46.9,28.7,30.19,West,268,0.0,0.0,49,0.00,,,0.00,0,Wunderground v.1.15,2013-03-30 02:04:00,
2013-03-29 22:09:00,46.6,27.9,30.19,West,269,0.0,0.0,48,0.00,,,0.00,0,Wunderground v.1.15,2013-03-30 02:09:00,
2013-03-29 22:14:00,46.5,28.8,30.19,West,269,0.0,0.0,50,0.00,,,0.00,0,Wunderground v.1.15,2013-03-30 02:14:00,
2013-03-29 22:20:00,46.1,28.0,30.19,West,268,0.0,0.0,49,0.00,,,0.00,0,Wunderground v.1.15,2013-03-30 02:20:00,
2013-03-29 22:25:00,46.4,28.3,30.18,West,268,0.0,0.0,49,0.00,,,0.00,0,Wunderground v.1.15,2013-03-30 02:25:00,
2013-03-29 22:30:00,46.3,28.2,30.19,West,269,0.0,0.0,49,0.00,,,0.00,0,Wunderground v.1.15,2013-03-30 02:30:00,
2013-03-29 22:35:00,46.3,28.2,30.19,West,268,0.0,0.0,49,0.00,,,0.00,0,Wunderground v.1.15,2013-03-30 02:35:00,
2013-03-29 22:40:00,46.2,28.1,30.18,West,269,0.0,0.0,49,0.00,,,0.00,0,Wunderground v.1.15,2013-03-30 02:40:00,
2013-03-29 22:45:00,45.7,29.5,30.19,West,268,0.0,0.0,53,0.00,,,0.00,0,Wunderground v.1.15,2013-03-30 02:45:00,
2013-03-29 22:50:00,45.4,28.3,30.19,West,269,0.0,0.0,51,0.00,,,0.00,0,Wunderground v.1.15,2013-03-30 02:50:00,
2013-03-29 22:56:00,45.9,28.3,30.19,West,269,0.0,0.0,50,0.00,,,0.00,0,Wunderground v.1.15,2013-03-30 02:56:00,
2013-03-29 23:01:00,46.4,28.3,30.19,West,269,0.0,0.0,49,0.00,,,0.00,0,Wunderground v.1.15,2013-03-30 03:01:00,
2013-03-29 23:06:00,46.5,28.3,30.19,West,269,0.0,0.0,49,0.00,,,0.00,0,Wunderground v.1.15,2013-03-30 03:06:00,
2013-03-29 23:11:00,46.3,28.7,30.19,West,268,0.0,0.0,50,0.00,,,0.00,0,Wunderground v.1.15,2013-03-30 03:11:00,
2013-03-29 23:16:00,46.0,28.4,30.19,West,269,0.0,0.0,50,0.00,,,0.00,0,Wunderground v.1.15,2013-03-30 03:16:00,
2013-03-29 23:21:00,46.1,28.5,30.19,West,269,0.0,0.0,50,0.00,,,0.00,0,Wunderground v.1.15,2013-03-30 03:21:00,
2013-03-29 23:26:00,45.2,30.9,30.19,West,268,0.0,0.0,57,0.00,,,0.00,0,Wunderground v.1.15,2013-03-30 03:26:00,
2013-03-29 23:31:00,44.6,30.3,30.19,West,269,0.0,0.0,57,0.00,,,0.00,0,Wunderground v.1.15,2013-03-30 03:31:00,
2013-03-29 23:36:00,45.2,28.1,30.19,West,268,0.0,0.0,51,0.00,,,0.00,0,Wunderground v.1.15,2013-03-30 03:36:00,
2013-03-29 23:41:00,45.7,28.1,30.19,West,268,0.0,0.0,50,0.00,,,0.00,0,Wunderground v.1.15,2013-03-30 03:41:00,
2013-03-29 23:47:00,45.8,28.7,30.19,West,268,0.0,0.0,51,0.00,,,0.00,0,Wunderground v.1.15,2013-03-30 03:47:00,
2013-03-29 23:52:00,46.0,28.4,30.19,West,269,0.0,0.0,50,0.00,,,0.00,0,Wunderground v.1.15,2013-03-30 03:52:00,
2013-03-29 23:57:00,45.7,29.1,30.19,West,268,0.0,0.0,52,0.00,,,0.00,0,Wunderground v.1.15,2013-03-30 03:57:00,